Location: Edinburgh
(55.9500°N, 3.1600°W)
Time: 10:12:23
(UTC+00:00)

ISS - Visible Passes

Search period start: 22 February 2019 00:00
Search period end: 04 March 2019 00:00
Orbit: 403 x 411 km, 51.6° (Epoch: 22 February)

Date Brightness Start Highest point End Pass type
(mag) Time Alt. Az. Time Alt. Az. Time Alt. Az.
26 Feb -1.1 06:11:21 10° SSW 06:13:31 16° SSE 06:15:41 10° ESE visible
27 Feb -1.0 05:20:59 10° SSE 05:22:16 12° SE 05:23:35 10° ESE visible
28 Feb -1.9 06:04:01 10° SW 06:06:43 24° SSE 06:09:27 10° ESE visible
01 Mar -1.6 05:13:43 13° S 05:15:24 19° SSE 05:17:47 10° ESE visible
02 Mar -1.2 04:24:17 14° SE 04:24:17 14° SE 04:25:52 10° ESE visible
02 Mar -2.4 05:57:00 10° SW 05:59:58 32° SSE 06:02:56 10° ESE visible
03 Mar -2.2 05:07:29 22° SSW 05:08:34 27° SSE 05:11:23 10° ESE visible
